| time (UTC) | temp F | wind direction | speed MPH | gust MPH | rain 1hr in | rain 24hr in | rain mn in | humidity % | barometer mb |
| 20260508231123 | 48 | 85 | 4.0 | 6.0 | 0.00 | 0.00 | 0.00 | 82 | 1020.0 |
| 20260508225623 | 48 | 78 | 4.0 | 8.0 | 0.00 | 0.00 | 0.00 | 83 | 1019.9 |
| 20260508224122 | 48 | 91 | 4.0 | 8.0 | 0.00 | 0.00 | 0.00 | 81 | 1019.9 |
| 20260508222623 | 48 | 85 | 4.0 | 8.0 | 0.00 | 0.00 | 0.00 | 80 | 1020.0 |
| 20260508221121 | 48 | 91 | 4.0 | 8.0 | 0.00 | 0.00 | 0.00 | 80 | 1020.0 |
| 20260508215621 | 48 | 79 | 4.0 | 6.0 | 0.00 | 0.00 | 0.00 | 80 | 1020.0 |
| 20260508214121 | 48 | 85 | 4.0 | 6.0 | 0.00 | 0.00 | 0.00 | 79 | 1020.0 |
| 20260508212621 | 48 | 78 | 4.0 | 6.0 | 0.00 | 0.00 | 0.00 | 78 | 1019.9 |
| 20260508211121 | 50 | 81 | 4.0 | 6.0 | 0.00 | 0.00 | 0.00 | 76 | 1019.8 |
| 20260508205621 | 50 | 79 | 4.0 | 6.0 | 0.00 | 0.00 | 0.00 | 76 | 1019.9 |
| 20260508204120 | 50 | 83 | 4.0 | 6.0 | 0.00 | 0.00 | 0.00 | 75 | 1019.8 |
| 20260508202620 | 50 | 84 | 4.0 | 4.0 | 0.00 | 0.00 | 0.00 | 75 | 1019.7 |
| 20260508201120 | 48 | 82 | 4.0 | 4.0 | 0.00 | 0.00 | 0.00 | 77 | 1019.7 |
| 20260508195620 | 48 | 85 | 2.0 | 4.0 | 0.00 | 0.00 | 0.00 | 80 | 1019.6 |
| 20260508194120 | 50 | 80 | 2.0 | 4.0 | 0.00 | 0.00 | 0.00 | 74 | 1019.4 |
| 20260508192621 | 53 | 95 | 2.0 | 4.0 | 0.00 | 0.00 | 0.00 | 65 | 1019.2 |
| 20260508191120 | 53 | 97 | 2.0 | 6.0 | 0.00 | 0.00 | 0.00 | 65 | 1019.0 |
| 20260508185619 | 55 | 96 | 4.0 | 8.0 | 0.00 | 0.00 | 0.00 | 61 | 1018.9 |
| 20260508184118 | 57 | 96 | 4.0 | 8.0 | 0.00 | 0.00 | 0.00 | 59 | 1018.8 |
| 20260508182618 | 57 | 92 | 4.0 | 8.0 | 0.00 | 0.00 | 0.00 | 59 | 1018.8 |
| 20260508181118 | 57 | 85 | 6.0 | 11.0 | 0.00 | 0.00 | 0.00 | 53 | 1018.4 |
| 20260508175618 | 59 | 94 | 4.0 | 11.0 | 0.00 | 0.00 | 0.00 | 55 | 1018.4 |
| 20260508174118 | 59 | 110 | 6.0 | 11.0 | 0.00 | 0.00 | 0.00 | 53 | 1018.3 |
| 20260508172619 | 59 | 99 | 6.0 | 13.0 | 0.00 | 0.00 | 0.00 | 54 | 1018.1 |
| 20260508171117 | 59 | 116 | 6.0 | 13.0 | 0.00 | 0.00 | 0.00 | 52 | 1018.1 |
| 20260508165617 | 59 | 96 | 8.0 | 13.0 | 0.00 | 0.00 | 0.00 | 52 | 1018.2 |
| 20260508164117 | 59 | 92 | 6.0 | 11.0 | 0.00 | 0.00 | 0.00 | 52 | 1018.2 |
| 20260508162617 | 59 | 76 | 6.0 | 13.0 | 0.00 | 0.00 | 0.00 | 55 | 1018.4 |
| 20260508161116 | 59 | 58 | 8.0 | 13.0 | 0.00 | 0.00 | 0.00 | 54 | 1018.3 |
| 20260508155617 | 60 | 98 | 6.0 | 11.0 | 0.00 | 0.00 | 0.00 | 55 | 1018.2 |
| 20260508154116 | 60 | 110 | 6.0 | 11.0 | 0.00 | 0.00 | 0.00 | 51 | 1018.3 |
| 20260508152616 | 59 | 77 | 6.0 | 13.0 | 0.00 | 0.00 | 0.00 | 52 | 1018.4 |
| 20260508151115 | 60 | 73 | 6.0 | 13.0 | 0.00 | 0.00 | 0.00 | 50 | 1018.4 |
| 20260508145616 | 59 | 109 | 6.0 | 13.0 | 0.00 | 0.00 | 0.00 | 51 | 1018.5 |
| 20260508144115 | 59 | 76 | 6.0 | 11.0 | 0.00 | 0.00 | 0.00 | 55 | 1018.5 |
| 20260508142615 | 59 | 95 | 6.0 | 13.0 | 0.00 | 0.00 | 0.00 | 55 | 1018.6 |
| 20260508141115 | 62 | 86 | 4.0 | 11.0 | 0.00 | 0.00 | 0.00 | 52 | 1018.6 |
| 20260508135615 | 59 | 107 | 6.0 | 11.0 | 0.00 | 0.00 | 0.00 | 52 | 1018.6 |
| 20260508134113 | 59 | 87 | 6.0 | 11.0 | 0.00 | 0.00 | 0.00 | 55 | 1018.6 |
| 20260508132614 | 59 | 94 | 6.0 | 13.0 | 0.00 | 0.00 | 0.00 | 55 | 1018.6 |
| 20260508131113 | 59 | 82 | 8.0 | 13.0 | 0.00 | 0.00 | 0.00 | 54 | 1018.8 |
| 20260508125613 | 60 | 120 | 6.0 | 13.0 | 0.00 | 0.00 | 0.00 | 55 | 1018.8 |
| 20260508124112 | 59 | 113 | 6.0 | 13.0 | 0.00 | 0.00 | 0.00 | 56 | 1018.8 |
| 20260508122612 | 59 | 89 | 6.0 | 13.0 | 0.00 | 0.00 | 0.00 | 55 | 1018.8 |
| 20260508121111 | 59 | 100 | 6.0 | 13.0 | 0.00 | 0.00 | 0.00 | 57 | 1019.0 |
| 20260508115612 | 59 | 107 | 6.0 | 13.0 | 0.00 | 0.00 | 0.00 | 55 | 1018.9 |
| 20260508114111 | 60 | 58 | 6.0 | 11.0 | 0.00 | 0.00 | 0.00 | 57 | 1018.9 |
| 20260508112612 | 57 | 98 | 6.0 | 13.0 | 0.00 | 0.00 | 0.00 | 58 | 1019.2 |
| 20260508111110 | 57 | 123 | 6.0 | 11.0 | 0.00 | 0.00 | 0.00 | 60 | 1019.2 |
| 20260508105611 | 57 | 89 | 6.0 | 11.0 | 0.00 | 0.00 | 0.00 | 56 | 1019.2 |
| 20260508104110 | 59 | 73 | 6.0 | 13.0 | 0.00 | 0.00 | 0.00 | 59 | 1019.1 |
| 20260508102610 | 59 | 86 | 6.0 | 13.0 | 0.00 | 0.00 | 0.00 | 58 | 1019.1 |
| 20260508101109 | 57 | 78 | 6.0 | 15.0 | 0.00 | 0.00 | 0.00 | 60 | 1019.2 |
| 20260508095609 | 57 | 71 | 6.0 | 11.0 | 0.00 | 0.00 | 0.00 | 59 | 1019.2 |
| 20260508094109 | 57 | 71 | 8.0 | 13.0 | 0.00 | 0.00 | 0.00 | 62 | 1019.3 |
| 20260508092608 | 55 | 75 | 6.0 | 13.0 | 0.00 | 0.00 | 0.00 | 61 | 1019.3 |
| 20260508091107 | 55 | 80 | 8.0 | 13.0 | 0.00 | 0.00 | 0.00 | 64 | 1019.4 |
| 20260508085607 | 55 | 82 | 8.0 | 13.0 | 0.00 | 0.00 | 0.00 | 65 | 1019.4 |
| 20260508084106 | 53 | 112 | 8.0 | 15.0 | 0.00 | 0.00 | 0.00 | 68 | 1019.4 |
| 20260508082607 | 53 | 74 | 6.0 | 13.0 | 0.00 | 0.00 | 0.00 | 72 | 1019.3 |
| 20260508081106 | 53 | 72 | 6.0 | 13.0 | 0.00 | 0.00 | 0.00 | 72 | 1019.4 |
| 20260508075606 | 51 | 100 | 6.0 | 13.0 | 0.00 | 0.00 | 0.00 | 77 | 1019.5 |
| 20260508074105 | 51 | 86 | 6.0 | 13.0 | 0.00 | 0.00 | 0.00 | 75 | 1019.4 |
| 20260508072605 | 50 | 111 | 6.0 | 11.0 | 0.00 | 0.00 | 0.00 | 80 | 1019.4 |
| 20260508071105 | 50 | 107 | 4.0 | 8.0 | 0.00 | 0.00 | 0.00 | 82 | 1019.3 |
| 20260508065604 | 48 | 86 | 2.0 | 6.0 | 0.00 | 0.00 | 0.00 | 87 | 1019.0 |
| 20260508064104 | 46 | 99 | 2.0 | 6.0 | 0.00 | 0.00 | 0.00 | 90 | 1019.0 |
| 20260508062605 | 44 | 70 | 2.0 | 4.0 | 0.00 | 0.00 | 0.00 | 98 | 1018.9 |
| 20260508061103 | 42 | 71 | 2.0 | 6.0 | 0.00 | 0.00 | 0.00 | 99 | 1018.9 |
| 20260508055604 | 41 | 68 | 4.0 | 4.0 | 0.00 | 0.00 | 0.00 | 99 | 1018.8 |
| 20260508054102 | 39 | 64 | 4.0 | 6.0 | 0.00 | 0.00 | 0.00 | 99 | 1018.8 |
| 20260508052603 | 39 | 66 | 4.0 | 6.0 | 0.00 | 0.00 | 0.00 | 99 | 1018.8 |
| 20260508051102 | 37 | 62 | 0.0 | 2.0 | 0.00 | 0.00 | 0.00 | 99 | 1018.8 |
| 20260508045602 | 33 | 67 | 0.0 | 2.0 | 0.00 | 0.00 | 0.00 | 99 | 1018.8 |
| 20260508044101 | 35 | 66 | 2.0 | 4.0 | 0.00 | 0.00 | 0.00 | 99 | 1018.7 |
| 20260508042602 | 35 | 61 | 2.0 | 4.0 | 0.00 | 0.00 | 0.00 | 98 | 1018.4 |
| 20260508041101 | 37 | 69 | 2.0 | 4.0 | 0.00 | 0.00 | 0.00 | 99 | 1018.6 |
| 20260508035601 | 35 | 68 | 2.0 | 4.0 | 0.00 | 0.00 | 0.00 | 99 | 1018.4 |
| 20260508034101 | 35 | 55 | 2.0 | 4.0 | 0.00 | 0.00 | 0.00 | 99 | 1018.4 |
| 20260508032601 | 35 | 42 | 2.0 | 2.0 | 0.00 | 0.00 | 0.00 | 99 | 1018.4 |
| 20260508031100 | 35 | 42 | 2.0 | 2.0 | 0.00 | 0.00 | 0.00 | 99 | 1018.4 |
| 20260508025559 | 35 | 57 | 2.0 | 4.0 | 0.00 | 0.00 | 0.00 | 99 | 1018.4 |
| 20260508024059 | 35 | 42 | 2.0 | 4.0 | 0.00 | 0.00 | 0.00 | 99 | 1018.4 |
| 20260508022559 | 35 | 41 | 2.0 | 4.0 | 0.00 | 0.00 | 0.00 | 99 | 1018.6 |
| 20260508021059 | 35 | 47 | 2.0 | 4.0 | 0.00 | 0.00 | 0.00 | 98 | 1018.4 |
| 20260508015559 | 33 | 63 | 2.0 | 4.0 | 0.00 | 0.00 | 0.00 | 98 | 1018.5 |
| 20260508014058 | 35 | 67 | 2.0 | 4.0 | 0.00 | 0.00 | 0.00 | 99 | 1018.5 |
| 20260508012557 | 35 | 73 | 4.0 | 6.0 | 0.00 | 0.00 | 0.00 | 99 | 1018.5 |
| 20260508011057 | 35 | 69 | 4.0 | 4.0 | 0.00 | 0.00 | 0.00 | 98 | 1018.6 |
| 20260508005557 | 35 | 44 | 2.0 | 4.0 | 0.00 | 0.00 | 0.00 | 99 | 1018.6 |
| 20260508004057 | 37 | 51 | 2.0 | 2.0 | 0.00 | 0.00 | 0.00 | 99 | 1018.7 |
| 20260508002557 | 37 | 52 | 0.0 | 2.0 | 0.00 | 0.00 | 0.00 | 99 | 1018.5 |
| 20260508001057 | 35 | 52 | 0.0 | 2.0 | 0.00 | 0.00 | 0.00 | 98 | 1018.6 |
| 20260507235557 | 37 | 42 | 2.0 | 2.0 | 0.00 | 0.00 | 0.00 | 99 | 1018.6 |
| 20260507234057 | 35 | 36 | 0.0 | 2.0 | 0.00 | 0.00 | 0.00 | 99 | 1018.6 |
| 20260507232557 | 35 | 29 | 2.0 | 2.0 | 0.00 | 0.00 | 0.00 | 98 | 1018.6 |